THORAD AGENA D DEB, 4214

Orbit data source: Space-Track

THORAD AGENA D DEB, 4214 is space debris in LEO originally from a launch on Tue, 30 Sep 1969 UTC launched from the Air Force Western Test Range (AFWTR). Debris objects in space refer to the collection of defunct objects orbiting the Earth. Examples of debris include non-operational satellites, rocket bodies, and fragments generated from explosions, collisions, or faulty payload assembly.

Loading next visibility...
Identifier
4214, 1969-082CD
Orbit
LEO
Country
Flag of USUS
Related business
Manufacturer
Unknown
Mission
Spacecraft
Bus & Motor
Unknown
Mass
Unknown
Launch date (UTC)
1969-09-30 (57 years ago)
Launch vehicle
Unknown
Launch site
Air Force Western Test Range (AFWTR)
Object type
Payload
Rocket body
Debris
Shape & HBR
Unknown shape, 0.2 m
Radar Cross Section
Medium (>0.1 m² and <1 m²)

Expand to show TLE details & history
Last TLE update: 2 days ago

TLE from 2 days ago
0 THORAD AGENA D DEB
1  4214U 69082CD  26171.37200545  .00000685  00000-0  20537-3 0  9998
2  4214  70.0507  67.5008 0054677  49.8794 310.7110 14.46081699960699
Epoch: 2026-06-20T08:55Z
TLE epoch observation values (Epoch: 2026-06-20T08:55:41.270Z)
Latitude
-0.00008°
Longitude
24.99123°
Altitude
715.585 km
Speed
7.511 km/s
True Right ascension
04h 30m 00s
True Declination
0° 00' 00"
Sunlit
Object was in daylight at epoch
Visualization orbit readout
Latitude
Unknown
Longitude
Unknown
Altitude
Unknown
Speed
Unknown
Apparent Right ascension
Unknown
Apparent Declination
Unknown
Sunlit
N/A
Visualization observer readout
Local Sidereal Time
07:04:00
Azimuth
Unknown
Elevation
Unknown
Doppler factor
Unknown
Orbital elements
Apogee altitude
775.367 km
Perigee altitude
697.566 km
Semi-major axis
7,114.603 km
Eccentricity
0.00547
Inclination
70.0507°
RAAN
67.5008°
Arg. of periapsis
49.8794°
True anomaly
310.23395°
Mean anomaly
310.711°
Eccentric anomaly
310.47269°
Mean motion
3.61674 °/min
Orbital period
99.54 mins
BSTAR
0.00020537

Documentation

Showing up to 5 results
|